Date,TemperatureHighF,TemperatureAvgF,TemperatureLowF,DewpointHighF,DewpointAvgF,DewpointLowF,HumidityHigh,HumidityAvg,HumidityLow,PressureMaxIn,PressureMinIn,WindSpeedMaxMPH,WindSpeedAvgMPH,GustSpeedMaxMPH,PrecipitationSumIn
2013-1-1,36,32,22,32,26,16,93,82,71,0.00,0.00,36,10,36,0.00
2013-1-2,29,22,16,23,17,11,87,81,77,0.00,0.00,24,6,24,0.00
2013-1-3,24,16,8,18,10,2,83,75,63,0.00,0.00,15,5,15,0.00
2013-1-4,36,29,21,31,25,18,92,86,80,0.00,0.00,26,5,27,0.00
2013-1-5,40,33,27,31,28,24,90,83,69,0.00,0.00,25,4,25,0.00
2013-1-6,40,33,27,35,30,24,96,91,82,0.00,0.00,20,3,20,0.00
2013-1-7,37,32,26,32,29,23,97,89,72,0.00,0.00,17,3,17,0.00
2013-1-8,43,34,24,37,32,22,97,89,78,0.00,0.00,25,4,25,0.00
2013-1-9,42,36,29,41,34,28,98,93,84,0.00,0.00,22,3,22,0.00
2013-1-10,44,40,36,38,32,30,85,73,64,0.00,0.00,36,9,36,0.00
2013-1-11,38,35,30,38,32,28,100,90,79,0.00,0.00,6,0,6,0.00
2013-1-12,43,41,38,43,41,38,100,100,100,0.00,0.00,5,0,5,0.00
2013-1-13,51,46,41,51,46,41,100,100,100,0.00,0.00,16,1,16,0.00
2013-1-14,55,50,41,54,47,36,100,92,76,0.00,0.00,20,6,20,0.00
2013-1-15,41,38,36,37,35,33,95,89,82,0.00,0.00,10,1,10,0.00
2013-1-16,36,34,32,35,33,32,100,97,88,0.00,0.00,6,0,6,0.00
2013-1-17,39,35,31,37,34,27,100,94,84,0.00,0.00,24,4,24,0.00
2013-1-18,31,24,20,27,17,12,86,75,62,0.00,0.00,24,7,24,0.00
2013-1-19,43,35,21,37,31,16,94,84,75,0.00,0.00,23,4,23,0.00
2013-1-20,49,40,29,40,34,19,95,79,58,0.00,0.00,43,10,43,0.00
2013-1-21,30,26,23,24,20,16,94,77,66,0.00,0.00,23,4,23,0.00
2013-1-22,26,21,14,24,15,7,95,78,62,0.00,0.00,26,8,26,0.00
2013-1-23,15,12,8,9,4,0,80,71,65,0.00,0.00,26,11,26,0.00
2013-1-24,19,11,4,6,2,-2,78,65,55,0.00,0.00,26,10,26,0.00
2013-1-25,22,16,9,15,5,0,81,62,54,0.00,0.00,18,7,19,0.00
2013-1-26,23,18,12,15,10,6,85,74,57,0.00,0.00,21,6,21,0.02
2013-1-27,29,20,12,15,10,6,79,66,54,0.00,0.00,18,7,18,0.02
2013-1-28,31,26,19,28,20,12,96,79,64,0.00,0.00,10,1,10,0.01
2013-1-29,35,32,28,35,31,27,100,98,96,0.00,0.00,5,0,5,0.03
2013-1-30,57,47,34,57,47,34,100,100,100,0.00,0.00,23,4,23,0.08
2013-1-31,59,47,32,59,44,24,100,88,69,0.00,0.00,45,14,45,0.64
2013-2-1,32,28,22,25,20,14,85,71,61,0.00,0.00,24,11,24,0.00
2013-2-2,29,24,19,20,17,12,81,73,67,0.00,0.00,20,5,20,0.00
2013-2-3,29,26,23,26,24,20,96,91,81,0.00,0.00,11,2,11,0.00
2013-2-4,28,24,20,25,19,16,96,81,66,0.00,0.00,25,8,25,0.00
2013-2-5,28,25,22,25,22,16,95,86,80,0.00,0.00,8,0,8,0.01
2013-2-6,36,30,26,30,25,15,97,83,63,0.00,0.00,24,7,24,0.00
2013-2-7,30,25,19,19,16,13,78,69,62,0.00,0.00,12,2,12,0.00
2013-2-8,33,28,19,33,27,18,100,94,73,0.00,0.00,24,8,24,0.63
2013-2-9,25,21,16,22,19,10,100,92,79,0.00,0.00,30,13,30,0.01
2013-2-10,36,22,11,24,14,6,82,73,54,0.00,0.00,14,3,14,0.01
2013-2-11,45,34,20,44,32,14,100,94,77,0.00,0.00,15,2,15,0.13
2013-2-12,43,39,35,43,35,31,100,88,78,0.00,0.00,29,11,29,0.00
2013-2-13,40,35,30,34,31,28,94,86,77,0.00,0.00,17,3,17,0.00
2013-2-14,41,35,31,32,30,28,95,83,69,0.00,0.00,15,3,15,0.00
2013-2-15,47,38,30,41,35,29,99,91,81,0.00,0.00,17,2,17,0.00
2013-2-16,37,35,31,36,33,27,99,94,84,0.00,0.00,16,5,16,0.02
2013-2-17,31,23,17,27,17,8,96,80,61,0.00,0.00,38,17,38,0.00
2013-2-18,29,21,14,13,10,7,73,63,48,0.00,0.00,36,15,36,0.00
2013-2-19,46,35,22,43,30,13,100,82,63,0.00,0.00,13,1,13,0.08
2013-2-20,42,32,26,42,26,18,99,79,63,0.00,0.00,35,15,35,0.01
2013-2-21,32,28,24,22,20,18,81,74,67,0.00,0.00,30,14,30,0.00
2013-2-22,38,31,24,30,26,21,88,81,71,0.00,0.00,14,4,14,0.00
2013-2-23,38,34,32,35,32,28,100,92,85,0.00,0.00,8,1,8,0.00
2013-2-24,36,35,33,36,35,33,100,100,100,0.00,0.00,12,5,14,0.00
2013-2-25,36,34,32,36,34,32,100,100,100,0.00,0.00,7,1,7,0.00
2013-2-26,40,36,33,39,36,33,100,98,94,0.00,0.00,9,1,10,0.00
2013-2-27,42,39,35,42,39,35,100,100,100,0.00,0.00,17,7,17,0.15
2013-2-28,43,38,35,43,38,34,100,100,100,0.00,0.00,9,2,9,0.00
2013-3-1,40,37,35,39,36,34,100,98,95,0.00,0.00,16,5,16,0.00
2013-3-2,40,36,34,37,35,32,97,93,88,0.00,0.00,13,5,13,0.00
2013-3-3,40,35,32,36,33,30,98,93,86,0.00,0.00,13,7,13,0.00
2013-3-4,38,33,28,32,29,26,95,85,76,0.00,0.00,26,13,26,0.00
2013-3-5,42,36,30,36,32,27,96,86,78,0.00,0.00,14,5,16,0.00
2013-3-6,38,37,35,38,36,35,100,99,95,0.00,0.00,24,9,24,0.01
2013-3-7,35,33,32,35,33,32,100,100,97,0.00,0.00,22,11,22,0.00
2013-3-8,38,33,31,36,33,31,100,98,88,0.00,0.00,18,9,19,0.00
2013-3-9,44,37,32,37,32,29,98,84,68,0.00,0.00,16,5,16,0.00
2013-3-10,43,36,29,40,35,29,100,96,88,0.00,0.00,9,2,9,0.00
2013-3-11,50,42,36,48,41,36,100,98,88,0.00,0.00,14,2,14,0.00
2013-3-12,53,48,42,53,48,42,100,100,100,0.00,0.00,14,2,14,0.50
2013-3-13,51,42,36,51,38,32,100,88,64,0.00,0.00,22,8,22,0.00
2013-3-14,36,31,24,32,24,16,92,76,65,0.00,0.00,26,11,26,0.00
2013-3-15,39,30,22,33,23,17,88,74,58,0.00,0.00,25,9,25,0.00
2013-3-16,39,35,30,32,27,23,89,74,60,0.00,0.00,15,4,15,0.00
2013-3-17,36,32,28,28,22,19,82,68,50,0.00,0.00,29,6,29,0.00
2013-3-18,38,30,22,28,19,13,83,65,53,0.00,0.00,8,2,8,0.00
2013-3-19,37,34,31,37,33,28,100,98,83,0.00,0.00,18,6,18,0.00
2013-3-20,36,32,28,32,29,27,100,87,73,0.00,0.00,28,10,28,0.00
2013-3-21,36,32,29,33,30,26,97,91,84,0.00,0.00,9,2,9,0.00
2013-3-22,38,33,27,31,27,23,96,80,68,0.00,0.00,26,10,26,0.00
2013-3-23,40,35,30,29,28,26,90,75,62,0.00,0.00,30,13,30,0.00
2013-3-24,44,37,32,35,30,26,88,76,67,0.00,0.00,18,6,18,0.00
2013-3-25,41,37,34,38,35,32,96,90,82,0.00,0.00,22,6,22,0.00
2013-3-26,45,39,36,36,34,31,96,83,67,0.00,0.00,17,6,17,0.00
2013-3-27,49,41,32,36,33,28,86,73,57,0.00,0.00,22,7,22,0.00
2013-3-28,48,43,38,41,38,36,97,85,72,0.00,0.00,13,4,13,0.17
2013-3-29,53,46,38,41,38,36,93,76,58,0.00,0.00,21,6,21,0.00
2013-3-30,54,46,40,38,34,30,84,65,43,0.00,0.00,19,6,19,0.00
2013-3-31,56,46,36,45,36,31,93,68,48,0.00,0.00,18,3,19,0.00
2013-4-1,58,46,35,50,42,24,99,87,61,0.00,0.00,37,10,37,0.01
2013-4-2,39,34,31,25,24,22,77,65,51,0.00,0.00,34,13,34,0.00
2013-4-3,43,36,31,25,23,22,72,61,46,0.00,0.00,34,17,35,0.00
2013-4-4,53,40,31,33,27,23,75,61,43,0.00,0.00,18,7,19,0.00
2013-4-5,57,46,39,38,35,32,84,66,42,0.00,0.00,24,7,24,0.00
2013-4-6,47,39,33,32,24,18,73,56,39,0.00,0.00,23,8,23,0.00
2013-4-7,54,45,34,44,35,26,88,68,53,0.00,0.00,18,3,19,0.06
2013-4-8,64,53,46,50,46,44,97,79,55,0.00,0.00,15,3,15,0.00
2013-4-9,68,58,49,56,50,45,96,74,51,0.00,0.00,29,6,29,0.00
2013-4-10,64,55,48,57,51,47,97,87,74,0.00,0.00,12,1,12,0.07
2013-4-11,53,49,44,49,46,37,99,88,67,0.00,0.00,12,4,12,0.02
2013-4-12,44,40,38,41,39,38,100,97,81,0.00,0.00,14,6,14,0.65
2013-4-13,51,44,37,45,42,37,100,93,78,0.00,0.00,18,6,19,0.05
2013-4-14,50,46,42,45,40,35,97,80,60,0.00,0.00,26,6,27,0.00
2013-4-15,59,47,37,46,40,33,89,75,61,0.00,0.00,11,2,12,0.00
2013-4-16,63,52,42,54,47,39,94,82,65,0.00,0.00,17,3,17,0.00
2013-4-17,64,57,53,56,47,40,97,70,44,0.00,0.00,18,6,19,0.00
2013-4-18,61,53,44,49,43,39,86,69,49,0.00,0.00,11,2,11,0.00
2013-4-19,72,63,54,67,61,48,100,93,80,0.00,0.00,24,4,24,0.00
2013-4-20,65,54,45,65,48,34,100,83,60,0.00,0.00,25,9,25,0.81
2013-4-21,53,43,36,38,33,28,76,66,51,0.00,0.00,28,6,28,0.02
2013-4-22,51,44,38,41,37,34,89,75,56,0.00,0.00,17,5,17,0.01
2013-4-23,44,42,40,44,41,36,100,97,84,0.00,0.00,16,7,16,0.03
2013-4-24,70,54,42,56,49,42,100,86,55,0.00,0.00,17,6,17,0.01
2013-4-25,62,55,48,55,45,38,99,71,43,0.00,0.00,22,7,22,0.04
2013-4-26,61,52,44,48,42,36,84,69,53,0.00,0.00,12,2,12,0.23
2013-4-27,64,53,42,47,44,39,94,75,53,0.00,0.00,8,2,9,0.12
2013-4-28,67,56,45,47,44,39,88,65,45,0.00,0.00,12,2,12,0.04
2013-4-29,67,58,51,50,45,38,84,63,45,0.00,0.00,15,2,15,0.05
2013-4-30,70,59,49,43,40,36,72,50,35,0.00,0.00,12,1,12,0.14
2013-5-1,70,58,45,47,43,38,78,58,42,0.00,0.00,10,2,10,0.01
2013-5-2,74,59,50,51,47,44,85,66,40,0.00,0.00,14,3,14,0.00
2013-5-3,61,53,46,51,46,42,94,78,68,0.00,0.00,15,5,15,0.00
2013-5-4,61,53,45,51,43,36,90,71,43,0.00,0.00,16,4,16,0.00
2013-5-5,65,53,43,49,45,39,96,76,55,0.00,0.00,9,3,10,0.00
2013-5-6,74,59,47,58,50,43,90,74,56,0.00,0.00,12,1,12,0.00
2013-5-7,78,65,52,64,56,48,89,74,61,0.00,0.00,9,1,9,0.00
2013-5-8,70,65,59,68,62,57,100,92,77,0.00,0.00,10,1,10,0.37
2013-5-9,66,62,60,65,62,59,100,99,96,0.00,0.00,8,1,8,0.68
2013-5-10,76,66,57,65,61,57,100,86,65,0.00,0.00,10,3,10,0.33
2013-5-11,69,65,62,67,63,59,99,94,80,0.00,0.00,21,2,21,0.05
2013-5-12,68,62,53,64,57,44,100,85,62,0.00,0.00,23,4,23,0.09
2013-5-13,58,51,46,44,40,37,82,67,52,0.00,0.00,18,6,19,0.00
2013-5-14,56,50,43,42,40,37,82,67,53,0.00,0.00,17,4,17,0.00
2013-5-15,64,54,44,55,46,38,94,76,55,0.00,0.00,14,2,14,0.00
2013-5-16,79,66,55,55,51,45,96,61,32,0.00,0.00,25,6,25,0.01
2013-5-17,70,62,55,52,49,46,76,63,47,0.00,0.00,15,4,15,0.00
2013-5-18,72,62,51,55,50,47,92,68,49,0.00,0.00,12,2,12,0.00
2013-5-19,70,61,54,58,55,49,95,79,64,0.00,0.00,11,2,11,0.00
2013-5-20,80,69,59,71,64,58,100,87,67,0.00,0.00,14,3,14,0.05
2013-5-21,84,74,67,72,68,64,96,84,63,0.00,0.00,15,2,15,0.00
2013-5-25,44,43,42,44,43,42,100,100,100,0.00,0.00,15,9,15,0.02
2013-5-26,57,49,41,49,45,41,100,88,72,0.00,0.00,26,10,26,0.02
2013-5-27,71,58,46,52,47,44,96,70,44,0.00,0.00,24,5,24,0.00
2013-5-28,73,62,50,58,52,46,88,71,49,0.00,0.00,11,1,11,0.00
2013-5-29,73,65,60,72,64,58,100,97,83,0.00,0.00,10,1,10,1.18
2013-5-30,87,75,65,76,70,65,100,87,63,0.00,0.00,18,4,18,0.36
2013-5-31,91,80,70,75,72,68,98,77,55,0.00,0.00,15,3,15,0.00
2013-6-1,90,80,71,75,70,66,90,73,58,0.00,0.00,15,4,15,0.01
2013-6-2,86,78,71,73,70,68,94,78,60,0.00,0.00,20,4,20,0.00
2013-6-3,76,71,65,76,70,61,100,96,84,0.00,0.00,9,2,9,0.72
2013-6-4,73,63,54,61,53,48,86,70,55,0.00,0.00,18,7,18,0.00
2013-6-9,78,72,63,68,64,62,98,79,64,0.00,0.00,14,5,14,0.00
2013-6-10,69,64,60,67,63,59,100,97,88,0.00,0.00,9,2,9,1.25
2013-6-11,64,60,58,64,60,58,100,100,100,0.00,0.00,9,3,9,1.86
2013-6-12,68,62,59,62,61,59,100,94,80,0.00,0.00,22,8,22,0.42
2013-6-13,62,58,53,62,58,52,100,100,96,0.00,0.00,12,2,12,1.05
2013-6-14,71,59,53,69,59,53,100,98,83,0.00,0.00,17,6,17,1.39
2013-6-15,77,67,58,64,59,54,99,77,47,0.00,0.00,16,4,16,0.00
2013-6-16,72,67,58,69,62,54,96,85,73,0.00,0.00,10,2,10,0.01
2013-6-17,83,71,64,71,66,64,99,86,63,0.00,0.00,20,3,20,0.46
2013-6-18,76,66,61,73,65,61,100,98,85,0.00,0.00,16,2,17,1.15
2013-6-19,74,64,57,65,61,57,100,90,68,0.00,0.00,12,4,12,0.02
2013-6-20,80,68,56,68,61,56,99,81,57,0.00,0.00,10,2,10,0.00
2013-6-21,81,72,62,73,66,59,93,82,70,0.00,0.00,12,4,12,0.00
2013-6-22,84,73,66,71,65,60,85,76,62,0.00,0.00,13,3,13,0.00
2013-6-23,87,77,67,76,70,62,92,80,65,0.00,0.00,14,4,14,0.00
2013-6-24,90,80,73,78,74,70,99,83,62,0.00,0.00,20,5,20,0.04
2013-6-25,90,79,70,78,73,69,98,85,64,0.00,0.00,22,4,22,0.12
2013-6-26,83,77,72,76,73,71,98,88,72,0.00,0.00,18,3,18,0.00
2013-6-27,74,69,66,72,69,66,100,99,93,0.00,0.00,8,2,8,0.07
2013-6-28,80,72,65,79,72,65,100,99,96,0.00,0.00,10,2,10,0.01
2013-6-29,84,76,72,77,74,72,100,94,78,0.00,0.00,12,2,12,0.04
2013-6-30,84,78,73,80,76,73,99,93,84,0.00,0.00,9,2,9,0.00
2013-7-1,81,76,74,79,76,74,100,99,96,0.00,0.00,5,0,5,0.06
2013-7-2,85,78,75,81,77,75,100,97,87,0.00,0.00,10,2,11,0.01
2013-7-3,88,79,74,81,77,74,100,92,78,0.00,0.00,16,4,16,0.01
2013-7-4,92,83,76,82,78,76,100,87,72,0.00,0.00,14,4,14,0.00
2013-7-5,93,85,78,81,78,76,96,82,63,0.00,0.00,13,4,13,0.04
2013-7-6,91,84,78,79,77,75,96,81,64,0.00,0.00,15,4,15,0.00
2013-7-7,90,81,76,82,77,74,99,88,72,0.00,0.00,13,2,13,0.00
2013-7-8,90,80,72,81,76,72,100,91,69,0.00,0.00,14,4,14,0.07
2013-7-9,79,72,69,78,72,69,100,99,93,0.00,0.00,6,1,6,0.01
2013-7-10,84,74,70,82,74,70,100,99,93,0.00,0.00,8,1,8,0.00
2013-7-12,75,72,68,70,67,64,95,85,79,0.00,0.00,13,5,13,0.00
2013-7-13,76,71,67,76,71,67,100,99,95,0.00,0.00,7,2,7,0.00
2013-7-14,88,80,74,80,77,74,100,90,71,0.00,0.00,10,3,11,0.00
2013-7-15,90,82,76,83,78,76,100,88,72,0.00,0.00,7,2,7,0.00
2013-7-16,93,83,74,80,75,72,96,79,56,0.00,0.00,10,3,10,0.12
2013-7-17,94,84,76,82,76,73,96,78,61,0.00,0.00,10,2,10,0.01
2013-7-18,95,86,78,83,78,75,94,78,59,0.00,0.00,9,2,9,0.03
2013-7-19,95,87,80,83,79,77,93,78,61,0.00,0.00,18,4,18,0.01
2013-7-20,90,85,79,81,79,75,94,83,69,0.00,0.00,15,3,15,0.01
2013-7-21,89,80,73,76,72,68,90,76,61,0.00,0.00,7,2,7,0.00
2013-7-22,85,78,72,75,72,69,95,83,68,0.00,0.00,8,2,8,0.01
2013-7-23,81,75,73,81,75,72,100,99,93,0.00,0.00,18,1,19,0.58
2013-7-24,81,76,71,77,73,66,100,92,73,0.00,0.00,13,4,13,0.00
2013-7-25,71,62,60,66,61,58,100,94,84,0.00,0.00,12,6,12,0.00
2013-7-26,69,65,61,69,65,61,100,100,100,0.00,0.00,14,6,14,0.00
2013-7-27,80,71,64,77,70,63,100,95,85,0.00,0.00,9,2,9,0.00
2013-7-28,81,74,68,79,73,68,100,96,85,0.00,0.00,6,1,6,0.00
2013-7-29,84,76,70,79,74,70,100,95,82,0.00,0.00,9,1,9,0.00
2013-7-30,80,72,65,72,66,63,96,81,60,0.00,0.00,14,5,14,0.00
2013-7-31,82,73,65,74,67,63,95,82,66,0.00,0.00,8,1,8,0.00
2013-8-1,79,72,67,72,69,65,97,90,79,0.00,0.00,7,1,7,0.00
2013-8-2,81,73,68,73,69,66,100,88,66,0.00,0.00,17,3,17,0.00
2013-8-3,79,73,69,73,69,66,96,88,75,0.00,0.00,13,3,13,0.00
2013-8-4,76,69,63,67,63,60,95,80,61,0.00,0.00,18,4,19,0.00
2013-8-5,77,66,59,61,57,52,95,73,50,0.00,0.00,17,5,18,0.01
2013-8-6,81,68,57,68,60,54,93,74,58,0.00,0.00,7,0,7,0.00
2013-8-7,80,71,63,67,63,60,95,77,61,0.00,0.00,7,1,7,0.00
2013-8-8,80,73,69,77,71,63,100,94,80,0.00,0.00,10,2,10,0.00
2013-8-9,75,74,72,75,74,72,100,99,96,0.00,0.00,8,1,8,0.01
2013-8-10,78,73,67,74,68,61,100,87,61,0.00,0.00,22,5,22,0.00
2013-8-11,78,68,60,70,62,58,97,81,63,0.00,0.00,13,3,13,0.00
2013-8-12,82,72,65,73,66,63,98,83,66,0.00,0.00,9,2,10,0.00
2013-8-13,76,72,68,73,70,66,98,93,86,0.00,0.00,6,0,6,0.00
2013-8-14,73,67,62,69,61,57,99,81,64,0.00,0.00,23,8,23,0.00
2013-8-15,76,66,58,64,59,56,96,79,58,0.00,0.00,14,4,14,0.00
2013-8-16,78,68,60,67,61,57,94,78,60,0.00,0.00,13,2,13,0.00
2013-8-17,80,71,62,70,64,60,94,80,62,0.00,0.00,7,1,7,0.00
2013-8-18,78,71,66,70,66,63,94,84,70,0.00,0.00,6,0,6,0.00
2013-8-19,77,71,64,69,66,62,97,83,69,0.00,0.00,12,3,12,0.00
2013-8-20,83,74,67,71,68,64,96,80,61,0.00,0.00,11,3,11,0.00
2013-8-21,85,76,68,74,69,65,95,80,60,0.00,0.00,11,2,11,0.00
2013-8-22,80,76,70,77,73,68,96,89,81,0.00,0.00,10,2,10,0.00
2013-8-23,78,73,68,74,67,60,98,80,61,0.00,0.00,13,4,13,0.00
2013-8-24,77,68,60,63,58,54,86,71,55,0.00,0.00,10,3,10,0.01
2013-8-25,80,69,59,65,61,58,96,76,55,0.00,0.00,10,2,10,0.00
2013-8-26,78,72,68,72,66,62,95,83,76,0.00,0.00,15,3,15,0.00
2013-8-27,78,73,70,77,73,70,100,99,95,0.00,0.00,7,1,7,0.00
2013-8-28,81,74,68,76,72,68,100,94,79,0.00,0.00,7,1,7,0.00
2013-8-29,72,67,63,71,67,63,100,100,97,0.00,0.00,12,4,12,0.00
2013-8-30,79,70,63,76,69,63,100,97,85,0.00,0.00,13,3,13,0.00
2013-8-31,79,75,71,78,75,71,100,99,98,0.00,0.00,9,2,9,0.00
2013-9-1,78,75,72,78,75,72,100,100,100,0.00,0.00,13,1,13,0.00
2013-9-2,78,75,73,78,75,73,100,100,100,0.00,0.00,7,1,7,0.18
2013-9-3,75,72,66,75,72,66,100,100,100,0.00,0.00,10,2,10,0.14
2013-9-4,76,68,61,68,65,61,100,89,68,0.00,0.00,14,4,14,0.00
2013-9-5,68,66,59,66,63,55,100,90,77,0.00,0.00,12,2,12,0.06
2013-9-6,67,59,52,58,52,50,94,80,63,0.00,0.00,9,2,9,0.00
2013-9-7,74,63,54,63,57,51,93,80,62,0.00,0.00,12,3,12,0.00
2013-9-8,72,66,59,66,60,50,96,80,59,0.00,0.00,21,4,21,0.00
2013-9-9,68,59,51,59,52,48,90,78,65,0.00,0.00,10,2,10,0.08
2013-9-10,74,67,59,73,66,55,100,96,83,0.00,0.00,12,2,12,0.00
2013-9-11,88,79,72,83,77,72,100,93,76,0.00,0.00,15,3,15,0.00
2013-9-12,83,78,72,79,76,72,100,94,81,0.00,0.00,15,2,15,0.00
2013-9-13,74,70,63,72,69,61,100,97,88,0.00,0.00,13,3,13,0.00
2013-9-14,66,61,56,61,59,56,100,92,80,0.00,0.00,12,5,12,0.00
2013-9-15,68,60,52,61,57,52,100,91,73,0.00,0.00,12,3,12,0.00
2013-9-16,64,60,52,61,57,47,99,91,79,0.00,0.00,14,3,14,0.00
2013-9-17,61,53,46,53,47,43,92,81,66,0.00,0.00,13,4,13,0.00
2013-9-18,69,58,47,58,52,46,96,82,61,0.00,0.00,10,2,11,0.00
2013-9-19,74,63,53,64,57,52,96,82,66,0.00,0.00,8,2,8,0.00
2013-9-20,75,65,56,66,60,54,95,84,68,0.00,0.00,7,1,7,0.00
2013-9-21,74,67,60,70,65,59,99,94,81,0.00,0.00,15,2,15,0.00
2013-9-22,70,64,55,70,62,52,100,91,74,0.00,0.00,18,6,19,0.00
2013-9-23,61,54,48,53,50,46,95,84,72,0.00,0.00,16,6,16,0.00
2013-9-24,64,55,46,53,49,45,97,82,63,0.00,0.00,15,5,15,0.00
2013-9-25,65,58,50,60,54,49,96,86,78,0.00,0.00,14,3,14,0.00
2013-9-26,65,60,57,58,55,53,95,85,74,0.00,0.00,9,2,10,0.00
2013-9-27,64,60,57,60,57,56,95,90,82,0.00,0.00,10,3,10,0.00
2013-9-28,69,60,52,61,57,51,99,89,76,0.00,0.00,9,1,10,0.00
2013-9-29,65,57,51,58,54,50,100,88,74,0.00,0.00,7,1,7,0.00
2013-9-30,65,58,52,59,55,52,100,90,76,0.00,0.00,9,1,9,0.00
2013-10-1,74,62,52,63,58,52,100,86,64,0.00,0.00,13,4,13,0.00
2013-10-2,76,68,60,66,63,59,96,85,71,0.00,0.00,18,4,18,0.00
2013-10-3,73,65,58,62,58,54,95,79,56,0.00,0.00,9,2,9,0.00
2013-10-4,63,60,57,61,58,53,100,93,82,0.00,0.00,13,0,13,0.00
2013-10-5,66,62,59,66,62,59,100,100,100,0.00,0.00,6,0,6,0.00
2013-10-6,62,59,57,62,59,57,100,100,100,0.00,0.00,9,2,9,0.01
2013-10-7,72,65,57,72,65,57,100,100,100,0.00,0.00,15,2,15,0.19
2013-10-8,62,57,53,62,54,51,100,90,72,0.00,0.00,13,4,13,0.03
2013-10-9,58,54,50,53,50,48,97,89,73,0.00,0.00,12,4,12,0.00
2013-10-10,61,55,50,60,55,50,100,98,94,0.00,0.00,9,3,9,0.01
2013-10-11,66,59,54,64,58,54,100,95,86,0.00,0.00,12,3,12,0.00
2013-10-12,60,57,55,60,57,55,100,99,92,0.00,0.00,18,5,18,0.00
2013-10-13,59,55,50,56,54,49,100,96,86,0.00,0.00,11,4,11,0.02
2013-10-14,60,51,41,56,49,41,100,94,81,0.00,0.00,6,1,6,0.00
2013-10-15,66,58,52,60,56,52,100,92,81,0.00,0.00,7,1,7,0.00
2013-10-16,61,57,54,60,57,54,100,99,95,0.00,0.00,7,1,7,0.04
2013-10-17,69,62,56,67,62,56,100,99,92,0.00,0.00,12,2,12,0.01
2013-10-18,64,61,54,63,57,50,100,86,67,0.00,0.00,25,5,25,0.01
2013-10-19,62,55,48,54,50,46,96,83,68,0.00,0.00,12,1,12,0.01
2013-10-20,59,55,49,56,48,42,97,78,54,0.00,0.00,22,5,22,0.00
2013-10-21,64,54,46,51,46,42,88,76,61,0.00,0.00,15,2,15,0.00
2013-10-22,64,56,51,57,52,46,97,86,71,0.00,0.00,15,2,15,0.01
2013-10-23,52,48,44,46,43,41,92,83,73,0.00,0.00,7,1,7,0.00
2013-10-24,51,47,42,43,39,36,91,74,56,0.00,0.00,21,5,21,0.00
2013-10-25,49,44,40,39,37,35,88,76,64,0.00,0.00,21,4,21,0.00
2013-10-26,53,46,38,42,38,34,89,75,58,0.00,0.00,22,3,22,0.00
2013-10-27,53,49,45,43,41,37,87,74,59,0.00,0.00,23,5,23,0.00
2013-10-28,56,47,39,43,39,35,87,74,61,0.00,0.00,23,4,23,0.00
2013-10-29,48,42,37,35,33,30,78,70,58,0.00,0.00,12,2,12,0.00
2013-10-30,54,46,38,47,40,31,88,82,76,0.00,0.00,14,2,14,0.00
2013-10-31,62,52,43,62,51,41,100,97,88,0.00,0.00,12,1,12,0.00
2013-11-1,67,63,59,67,63,59,100,98,92,0.00,0.00,31,7,31,0.00
2013-11-2,62,56,51,59,52,50,99,87,68,0.00,0.00,15,2,15,0.00
2013-11-3,55,44,36,52,39,27,94,82,64,0.00,0.00,14,6,14,0.00
2013-11-4,41,36,32,30,28,25,79,72,61,0.00,0.00,13,3,13,0.00
2013-11-5,48,40,32,40,34,27,88,80,69,0.00,0.00,12,1,12,0.00
2013-11-6,58,51,44,54,47,40,97,87,74,0.00,0.00,14,2,15,0.00
2013-11-7,64,55,43,63,54,42,100,98,92,0.00,0.00,20,5,20,0.00
2013-11-8,47,41,37,42,35,30,96,81,62,0.00,0.00,37,8,37,0.00
2013-11-9,44,39,33,37,33,30,87,78,65,0.00,0.00,18,3,18,0.00
2013-11-10,53,47,43,46,42,37,96,82,70,0.00,0.00,32,5,32,0.00
2013-11-11,49,45,40,40,36,33,77,71,61,0.00,0.00,28,7,29,0.00
2013-11-12,49,38,30,42,32,23,95,81,71,0.00,0.00,26,8,26,0.00
2013-11-13,35,30,26,25,23,22,85,75,62,0.00,0.00,20,5,20,0.00
2013-11-14,48,39,31,34,29,24,79,68,57,0.00,0.00,21,5,21,0.00
2013-11-15,56,47,38,40,34,28,76,61,48,0.00,0.00,12,2,12,0.00
2013-11-16,56,48,44,42,39,36,84,71,57,0.00,0.00,12,1,12,0.00
2013-11-17,58,50,42,58,49,38,100,94,84,0.00,0.00,5,0,5,0.00
2013-11-18,62,57,49,62,53,40,100,86,68,0.00,0.00,29,5,29,0.00
2013-11-19,49,41,33,40,31,25,74,69,64,0.00,0.00,32,11,32,0.00
2013-11-20,40,34,29,29,25,22,77,70,57,0.00,0.00,15,4,15,0.00
2013-11-21,44,36,27,38,29,23,85,77,67,0.00,0.00,13,1,13,0.00
2013-11-22,50,47,43,50,46,38,100,95,84,0.00,0.00,9,1,9,0.00
2013-11-23,49,41,30,49,35,25,100,79,58,0.00,0.00,29,12,29,0.00
2013-11-24,30,24,22,25,15,10,85,67,53,0.00,0.00,37,17,37,0.00
2013-11-25,32,26,19,25,15,9,75,63,50,0.00,0.00,22,7,24,0.00
2013-11-26,42,36,32,39,30,25,99,79,67,0.00,0.00,18,2,18,0.00
2013-11-27,60,56,40,60,56,39,100,100,99,0.00,0.00,16,2,16,0.00
2013-11-28,60,55,25,60,54,19,100,97,79,0.00,0.00,8,0,8,0.00
2013-11-29,32,28,24,24,22,17,89,78,69,0.00,0.00,14,4,14,0.00
2013-11-30,31,25,18,27,21,14,90,83,75,0.00,0.00,7,1,7,0.00
2013-12-1,38,35,30,38,34,27,100,98,89,0.00,0.00,6,0,6,0.00
2013-12-2,41,38,36,41,38,36,100,100,100,0.00,0.00,6,0,6,0.00
2013-12-3,46,39,34,43,38,34,100,98,90,0.00,0.00,13,3,13,0.00
2013-12-4,44,36,32,39,35,32,100,97,83,0.00,0.00,10,1,10,0.00
2013-12-5,54,42,34,54,42,33,100,100,98,0.00,0.00,14,1,14,0.00
2013-12-6,55,49,38,55,49,38,100,100,98,0.00,0.00,15,4,15,0.00
2013-12-7,38,34,30,38,34,29,100,98,90,0.00,0.00,18,4,18,0.00
2013-12-8,30,29,25,30,27,24,100,94,87,0.00,0.00,7,1,7,0.00
2013-12-9,36,32,27,36,32,26,100,99,91,0.00,0.00,10,2,10,0.00
2013-12-10,35,32,26,35,32,26,100,100,100,0.00,0.00,10,1,10,0.00
2013-12-11,28,25,22,28,25,22,100,99,98,0.00,0.00,19,3,19,0.00
2013-12-12,24,21,16,24,19,14,99,90,76,0.00,0.00,17,4,17,0.00
2013-12-13,29,22,16,24,19,14,93,87,78,0.00,0.00,25,5,25,0.00
2013-12-14,23,16,13,23,14,8,100,88,78,0.00,0.00,9,4,9,0.00
2013-12-15,35,29,23,35,29,23,100,100,100,0.00,0.00,20,6,20,0.00
2013-12-16,27,24,18,26,21,16,100,88,74,0.00,0.00,29,6,29,0.00
2013-12-17,19,15,10,19,14,8,100,96,92,0.00,0.00,9,1,9,0.00
2013-12-18,32,25,19,28,24,18,100,95,86,0.00,0.00,20,4,20,0.00
2013-12-19,40,31,24,35,29,23,97,93,82,0.00,0.00,18,3,19,0.00
2013-12-20,45,38,32,42,37,32,99,96,88,0.00,0.00,13,1,13,0.00
2013-12-21,52,49,46,52,49,46,100,100,100,0.00,0.00,12,2,12,0.00
2013-12-22,61,53,39,61,53,39,100,100,100,0.00,0.00,18,3,18,0.00
2013-12-23,40,36,35,40,36,35,100,100,100,0.00,0.00,12,2,12,0.00
2013-12-24,39,33,27,39,32,24,100,97,90,0.00,0.00,18,6,18,0.00
2013-12-25,27,20,17,24,16,13,92,86,80,0.00,0.00,25,6,25,0.00
2013-12-26,32,26,19,32,25,16,100,97,90,0.00,0.00,11,2,11,0.00
2013-12-27,33,28,22,29,26,22,100,95,84,0.00,0.00,21,3,21,0.00
2013-12-28,42,34,27,37,32,26,98,92,80,0.00,0.00,22,3,22,0.00
2013-12-29,40,37,32,40,36,31,100,98,95,0.00,0.00,18,3,19,0.00
2013-12-30,38,32,21,38,30,18,100,94,82,0.00,0.00,24,7,24,0.00
2013-12-31,25,20,16,21,18,13,96,90,81,0.00,0.00,15,3,15,0.00
2014-1-1,27,22,18,21,18,15,91,85,74,0.00,0.00,18,4,18,0.00
2014-1-2,23,15,4,21,14,3,98,96,87,0.00,0.00,16,7,17,0.00